Showing default

KUIPER-00263, 68586

Orbit data source: Space-Track

KUIPER-00263, 68586 is a payload satellite owned by Kuiper Systems (US) in LEO that was launched on Sat, 04 Apr 2026 UTC via an ATLAS V 551 launch vehicle from the Air Force Eastern Test Range (AFETR). Payload-class satellites include a variety of spacecraft equipped with specific instruments for various scientific and technological missions. These include communications satellites like Starlink; space stations such as the ISS; scientific satellites like the Hubble; Earth observation satellites from companies like Planet Labs, Umbra, and HawkEye 360; GPS; miniature CubeSats for education and research; and military/defense satellites.

Loading next visibility...
Identifier
68586, 2026-072P
Orbit
LEO
Country
Flag of USUS
Related business
Manufacturer
Kuiper Systems
Mission
Operational spacecraft
Bus & Motor
KUIPER, Unknown motor
Mass
~490 kg wet, ~490 kg dry
Launch date (UTC)
2026-04-04 (2 months ago)
Launch vehicle
ATLAS V 551
Launch site
Air Force Eastern Test Range (AFETR)
Object type
Payload
Rocket body
Debris
Shape & HBR
Unknown shape, 3.4 m
Radar Cross Section
Large (>1 m²)

Expand to show TLE details & history
Last TLE update: 1 day ago

TLE from 1 day ago
0 KUIPER-00263
1 68586U 26072P   26149.59719460  .00020743  00000-0  55764-3 0  9999
2 68586  51.8772 266.5946 0001351 292.8444  67.2400 15.37860818  8527
Epoch: 2026-05-29T14:19Z
TLE epoch observation values (Epoch: 2026-05-29T14:19:57.613Z)
Latitude
-0.00004°
Longitude
164.47922°
Altitude
452.843 km
Speed
7.642 km/s
True Right ascension
17h 46m 22s
True Declination
0° 00' 00"
Sunlit
Object was in full shadow at epoch
Visualization orbit readout
Latitude
Unknown
Longitude
Unknown
Altitude
Unknown
Speed
Unknown
Apparent Right ascension
Unknown
Apparent Declination
Unknown
Sunlit
N/A
Visualization observer readout
Local Sidereal Time
00:54:07
Azimuth
Unknown
Elevation
Unknown
Doppler factor
Unknown
Orbital elements
Apogee altitude
453.826 km
Perigee altitude
451.98 km
Semi-major axis
6,831.04 km
Eccentricity
0.00014
Inclination
51.8772°
RAAN
266.5946°
Arg. of periapsis
292.8444°
True anomaly
67.25428°
Mean anomaly
67.24°
Eccentric anomaly
67.24714°
Mean motion
3.84426 °/min
Orbital period
93.65 mins
BSTAR
0.00055764
Loading maneuver chart data...
Computing Atmospheric mass density...
Loading historical data...
Loading historical data...
Loading historical data...
Loading historical data...
Loading historical data...
Loading historical data...
Loading historical data...

Documentation

Showing up to 5 results
|